Weather History for Mount Vernon, IL

Change the Weather History Date:

Sunday, October 6, 2013

  Actual Average Record
Temperature  
Mean Temperature 56 °F -  
Max Temperature 66 °F 70 °F 91 °F (2007)
Min Temperature 46 °F 47 °F 33 °F (2010)
Degree Days  
Heating Degree Days 9    
Growing Degree Days 6 (Base 50)    
Moisture  
Dew Point 44 °F    
Average Humidity 64    
Maximum Humidity 88    
Minimum Humidity 42    
Precipitation  
Precipitation 0.00 in - - ()
Sea Level Pressure  
Sea Level Pressure 29.88 in    
Wind  
Wind Speed 7 mph (WSW)    
Max Wind Speed 17 mph    
Max Gust Speed 22 mph    
Visibility 10 miles    
Events      
Averages and records for this station are not official NWS values.
T = Trace of Precipitation, MM = Missing Value Source: NWS Daily Summary

Daily Weather History Graph

Daily Weather History Graph

Search for Another Location

Airport:

Trip Planner

Search our weather history database for the weather conditions in past years. The results will help you decide how hot, cold, wet, or windy it might be!

Date:

Astronomy

Oct. 06, 2013 Rise Set
Actual Time 6:56 AM CDT 6:30 PM CDT
Civil Twilight 6:29 AM CDT 6:56 PM CDT
Nautical Twilight 5:58 AM CDT 7:27 PM CDT
Astronomical Twilight 5:28 AM CDT 7:57 PM CDT
Moon 8:38 AM CDT (10/6) 7:31 PM CDT (10/6)
Length of Visible Light 12h 27m
Length of Day
11h 34m
Waxing Crescent, 3% of the Moon is Illuminated
Oct 6
Waxing Crescent
Oct 11
First Quarter
Oct 18
Full
Oct 26
Last Quarter
Nov 3
New

Hourly Weather History & Observations

Time (CDT) Temp. Windchill Dew Point Humidity Pressure Visibility Wind Dir Wind Speed Gust Speed Precip Events Conditions
1:15 AM 59.0 °F - 51.8 °F 77% 29.87 in 10.0 mi North 4.6 mph - N/A   Overcast
2:15 AM 57.2 °F - 51.8 °F 82% 29.90 in 10.0 mi Calm Calm - N/A   Overcast
2:55 AM 57.2 °F - 51.8 °F 82% 29.90 in 10.0 mi West 5.8 mph - N/A   Overcast
3:35 AM 57.2 °F - 51.8 °F 82% 29.90 in 10.0 mi West 3.5 mph - N/A   Overcast
4:15 AM 55.4 °F - 51.8 °F 88% 29.89 in 10.0 mi Calm Calm - N/A   Overcast
4:55 AM 55.4 °F - 51.8 °F 88% 29.88 in 10.0 mi Calm Calm - N/A   Overcast
5:35 AM 55.4 °F - 51.8 °F 88% 29.87 in 10.0 mi Calm Calm - N/A   Overcast
5:55 AM 55.4 °F - 51.8 °F 88% 29.88 in 10.0 mi SW 4.6 mph - N/A   Overcast
6:15 AM 55.4 °F - 51.8 °F 88% 29.89 in 10.0 mi WSW 4.6 mph - N/A   Overcast
6:35 AM 55.4 °F - 51.8 °F 88% 29.88 in 10.0 mi WSW 4.6 mph - N/A   Overcast
6:55 AM 55.4 °F - 51.8 °F 88% 29.89 in 10.0 mi SW 5.8 mph - N/A   Overcast
7:15 AM 55.4 °F - 51.8 °F 88% 29.88 in 10.0 mi SSW 5.8 mph - N/A   Overcast
7:35 AM 55.4 °F - 51.8 °F 88% 29.88 in 10.0 mi SW 5.8 mph - N/A   Overcast
8:15 AM 55.4 °F - 51.8 °F 88% 29.88 in 10.0 mi WSW 8.1 mph - N/A   Partly Cloudy
8:55 AM 55.4 °F - 50.0 °F 82% 29.88 in 10.0 mi SW 8.1 mph - N/A   Clear
9:15 AM 57.2 °F - 48.2 °F 72% 29.88 in 10.0 mi SW 11.5 mph 16.1 mph N/A   Clear
9:35 AM 57.2 °F - 50.0 °F 77% 29.87 in 10.0 mi SW 11.5 mph - N/A   Clear
9:55 AM 59.0 °F - 50.0 °F 72% 29.87 in 10.0 mi SW 12.7 mph - N/A   Clear
10:15 AM 60.8 °F - 50.0 °F 68% 29.87 in 10.0 mi SW 10.4 mph - N/A   Partly Cloudy
10:35 AM 60.8 °F - 46.4 °F 59% 29.87 in 10.0 mi SW 12.7 mph 17.3 mph N/A   Clear
10:55 AM 62.6 °F - 44.6 °F 52% 29.87 in 10.0 mi WSW 10.4 mph - N/A   Clear
11:15 AM 62.6 °F - 44.6 °F 52% 29.86 in 10.0 mi SSW 16.1 mph - N/A   Clear
11:35 AM 62.6 °F - 41.0 °F 45% 29.86 in 10.0 mi WSW 16.1 mph 20.7 mph N/A   Clear
11:55 AM 64.4 °F - 44.6 °F 49% 29.84 in 10.0 mi WSW 13.8 mph 21.9 mph N/A   Clear
12:15 PM 66.2 °F - 44.6 °F 46% 29.85 in 10.0 mi SW 16.1 mph 20.7 mph N/A   Clear
12:35 PM 64.4 °F - 41.0 °F 42% 29.85 in 10.0 mi WSW 17.3 mph 21.9 mph N/A   Clear
1:15 PM 64.4 °F - 44.6 °F 49% 29.84 in 10.0 mi SW 17.3 mph 20.7 mph N/A   Clear
1:35 PM 64.4 °F - 42.8 °F 45% 29.84 in 10.0 mi West 11.5 mph 18.4 mph N/A   Partly Cloudy
1:55 PM 64.4 °F - 42.8 °F 45% 29.83 in 10.0 mi West 11.5 mph 21.9 mph N/A   Partly Cloudy
2:15 PM 64.4 °F - 42.8 °F 45% 29.82 in 10.0 mi West 11.5 mph 18.4 mph N/A   Clear
2:35 PM 64.4 °F - 42.8 °F 45% 29.82 in 10.0 mi WSW 11.5 mph 19.6 mph N/A   Clear
2:55 PM 64.4 °F - 42.8 °F 45% 29.83 in 10.0 mi WSW 13.8 mph 21.9 mph N/A   Partly Cloudy
3:15 PM 64.4 °F - 42.8 °F 45% 29.84 in 10.0 mi West 10.4 mph 19.6 mph N/A   Scattered Clouds
3:35 PM 62.6 °F - 42.8 °F 48% 29.84 in 10.0 mi WSW 10.4 mph 20.7 mph N/A   Mostly Cloudy
3:55 PM 62.6 °F - 42.8 °F 48% 29.85 in 10.0 mi WSW 11.5 mph 20.7 mph N/A   Mostly Cloudy
4:15 PM 62.6 °F - 41.0 °F 45% 29.85 in 10.0 mi West 11.5 mph 21.9 mph N/A   Mostly Cloudy
4:35 PM 60.8 °F - 42.8 °F 52% 29.84 in 10.0 mi West 8.1 mph - N/A   Mostly Cloudy
4:55 PM 60.8 °F - 41.0 °F 48% 29.85 in 10.0 mi WSW 8.1 mph 16.1 mph N/A   Mostly Cloudy
5:15 PM 60.8 °F - 39.2 °F 45% 29.86 in 10.0 mi West 10.4 mph 19.6 mph N/A   Scattered Clouds
5:35 PM 59.0 °F - 39.2 °F 48% 29.87 in 10.0 mi West 4.6 mph - N/A   Mostly Cloudy
5:55 PM 57.2 °F - 37.4 °F 48% 29.88 in 10.0 mi West 6.9 mph 20.7 mph N/A   Overcast
6:15 PM 55.4 °F - 39.2 °F 54% 29.89 in 10.0 mi West 8.1 mph - N/A   Mostly Cloudy
6:35 PM 55.4 °F - 37.4 °F 51% 29.90 in 10.0 mi West 6.9 mph - N/A   Mostly Cloudy
6:55 PM 55.4 °F - 37.4 °F 51% 29.91 in 10.0 mi West 4.6 mph - N/A   Overcast
7:15 PM 55.4 °F - 37.4 °F 51% 29.91 in 10.0 mi West 8.1 mph - N/A   Overcast
7:35 PM 55.4 °F - 37.4 °F 51% 29.91 in 10.0 mi West 4.6 mph - N/A   Mostly Cloudy
7:55 PM 53.6 °F - 37.4 °F 54% 29.92 in 10.0 mi WSW 5.8 mph - N/A   Partly Cloudy
8:15 PM 51.8 °F - 39.2 °F 62% 29.91 in 10.0 mi WSW 3.5 mph - N/A   Clear
8:35 PM 51.8 °F - 39.2 °F 62% 29.91 in 10.0 mi Calm Calm - N/A   Clear
8:55 PM 51.8 °F - 39.2 °F 62% 29.92 in 10.0 mi WSW 3.5 mph - N/A   Clear
9:15 PM 48.2 °F - 39.2 °F 71% 29.92 in 10.0 mi WSW 3.5 mph - N/A   Clear
9:35 PM 48.2 °F - 39.2 °F 71% 29.92 in 10.0 mi SW 5.8 mph - N/A   Clear
9:55 PM 46.4 °F 45.2 °F 39.2 °F 76% 29.92 in 10.0 mi SW 3.5 mph - N/A   Clear
10:15 PM 48.2 °F - 39.2 °F 71% 29.92 in 10.0 mi WSW 3.5 mph - N/A   Clear
10:35 PM 48.2 °F - 42.8 °F 82% 29.92 in 10.0 mi SSW 4.6 mph - N/A   Mostly Cloudy
10:55 PM 48.2 °F - 42.8 °F 82% 29.92 in 10.0 mi SSW 5.8 mph - N/A   Overcast
11:15 PM 51.8 °F - 42.8 °F 71% 29.92 in 10.0 mi SW 8.1 mph - N/A   Overcast
11:35 PM 51.8 °F - 42.8 °F 71% 29.91 in 10.0 mi SW 8.1 mph - N/A   Overcast
11:55 PM 51.8 °F - 42.8 °F 71% 29.91 in 10.0 mi SW 9.2 mph - N/A   Overcast